QPF
0.10 0.09 0.09 0.10 0.13 0.16 0.15 0.15 0.12 0.11 0.10 0.08 0.06 0.07 0.07 0.06 0.09 0.11 0.15 0.19 0.16 0.16 0.16 0.12 0.09 0.06 0.04 0.02 0.02 0.02 0.02 0.01 0.01 0.01 0.00 0.00 0.00 0.00 0.00 0.00 0.00 0.00 0.00
0.25 0.24 0.21 0.18 0.15 0.16 0.17 0.17 0.15 0.17 0.17 0.16 0.13 0.11 0.10 0.09 0.10 0.16 0.29 0.29 0.20 0.14 0.14 0.15 0.12 0.07 0.04 0.02 0.02 0.01 0.01 0.02 0.02 0.01 0.01 0.01 0.00 0.00 0.00 0.00 0.00 0.00 0.00
0.24 0.22 0.21 0.17 0.14 0.16 0.18 0.18 0.18 0.19 0.20 0.20 0.16 0.12 0.12 0.10 0.10 0.12 0.19 0.22 0.21 0.19 0.16 0.14 0.13 0.09 0.06 0.05 0.04 0.03 0.02 0.02 0.02 0.02 0.01 0.01 0.01 0.01 0.01 0.01 0.00 0.00 0.00
0.21 0.20 0.16 0.12 0.11 0.13 0.14 0.16 0.18 0.19 0.19 0.21 0.18 0.15 0.14 0.13 0.10 0.11 0.15 0.21 0.24 0.23 0.19 0.14 0.09 0.08 0.07 0.05 0.04 0.05 0.04 0.03 0.02 0.01 0.01 0.01 0.01 0.01 0.01 0.01 0.01 0.00 0.00
0.13 0.13 0.10 0.09 0.10 0.12 0.12 0.16 0.19 0.20 0.22 0.21 0.19 0.16 0.15 0.13 0.09 0.11 0.14 0.18 0.21 0.15 0.15 0.15 0.13 0.10 0.08 0.08 0.07 0.07 0.05 0.04 0.03 0.02 0.02 0.01 0.01 0.01 0.01 0.01 0.01 0.01 0.00
0.09 0.09 0.08 0.07 0.09 0.12 0.12 0.14 0.16 0.20 0.23 0.25 0.25 0.19 0.14 0.10 0.10 0.11 0.12 0.12 0.16 0.14 0.11 0.10 0.08 0.07 0.07 0.08 0.08 0.08 0.08 0.07 0.05 0.04 0.04 0.03 0.02 0.01 0.00 0.00 0.00 0.01 0.01
0.07 0.08 0.07 0.08 0.10 0.12 0.11 0.13 0.16 0.19 0.20 0.23 0.25 0.23 0.19 0.14 0.11 0.10 0.11 0.12 0.12 0.15 0.14 0.10 0.08 0.05 0.03 0.05 0.07 0.09 0.10 0.10 0.09 0.06 0.05 0.04 0.03 0.02 0.01 0.00 0.00 0.01 0.01
0.06 0.06 0.06 0.07 0.09 0.10 0.12 0.15 0.16 0.17 0.17 0.20 0.23 0.23 0.19 0.15 0.11 0.09 0.10 0.10 0.10 0.13 0.13 0.11 0.10 0.07 0.06 0.04 0.03 0.05 0.06 0.08 0.10 0.09 0.07 0.05 0.04 0.03 0.02 0.02 0.02 0.01 0.01
0.02 0.03 0.03 0.04 0.06 0.08 0.08 0.11 0.12 0.12 0.13 0.14 0.16 0.16 0.14 0.10 0.08 0.09 0.09 0.09 0.08 0.09 0.11 0.14 0.10 0.09 0.08 0.06 0.03 0.03 0.03 0.04 0.07 0.09 0.09 0.07 0.05 0.04 0.04 0.04 0.04 0.02 0.01
0.01 0.01 0.02 0.02 0.03 0.04 0.05 0.07 0.08 0.11 0.11 0.12 0.13 0.13 0.12 0.11 0.11 0.11 0.11 0.11 0.10 0.08 0.09 0.10 0.10 0.07 0.08 0.07 0.04 0.04 0.03 0.03 0.04 0.07 0.10 0.10 0.07 0.05 0.04 0.04 0.06 0.05 0.03
0.01 0.01 0.02 0.02 0.03 0.03 0.03 0.04 0.06 0.08 0.11 0.11 0.11 0.12 0.12 0.12 0.11 0.11 0.09 0.10 0.10 0.09 0.09 0.09 0.10 0.08 0.09 0.08 0.04 0.03 0.03 0.02 0.02 0.03 0.06 0.07 0.08 0.06 0.04 0.04 0.06 0.07 0.05
0.00 0.01 0.01 0.02 0.03 0.02 0.02 0.03 0.04 0.07 0.09 0.09 0.10 0.11 0.12 0.12 0.11 0.12 0.09 0.07 0.07 0.06 0.07 0.08 0.08 0.07 0.08 0.11 0.05 0.04 0.03 0.03 0.02 0.02 0.02 0.03 0.04 0.04 0.04 0.04 0.06 0.07 0.07
0.01 0.01 0.01 0.01 0.01 0.02 0.02 0.02 0.03 0.05 0.09 0.09 0.09 0.11 0.13 0.12 0.11 0.12 0.11 0.09 0.09 0.08 0.09 0.09 0.10 0.11 0.09 0.10 0.07 0.04 0.03 0.03 0.03 0.02 0.02 0.02 0.02 0.02 0.02 0.02 0.03 0.05 0.07
0.01 0.01 0.01 0.01 0.01 0.01 0.02 0.02 0.03 0.04 0.06 0.09 0.11 0.11 0.14 0.15 0.13 0.11 0.13 0.14 0.13 0.12 0.14 0.13 0.13 0.15 0.12 0.08 0.07 0.05 0.03 0.03 0.02 0.01 0.01 0.01 0.02 0.01 0.01 0.02 0.01 0.02 0.03
0.01 0.01 0.02 0.02 0.02 0.02 0.02 0.02 0.03 0.03 0.04 0.04 0.08 0.11 0.13 0.15 0.14 0.11 0.13 0.15 0.15 0.13 0.13 0.12 0.13 0.15 0.15 0.10 0.07 0.06 0.04 0.04 0.03 0.01 0.01 0.01 0.01 0.01 0.01 0.01 0.01 0.01 0.01
0.01 0.01 0.02 0.03 0.03 0.02 0.02 0.02 0.02 0.02 0.02 0.03 0.03 0.07 0.12 0.14 0.15 0.13 0.13 0.15 0.15 0.15 0.13 0.13 0.12 0.12 0.14 0.14 0.10 0.06 0.04 0.05 0.03 0.02 0.01 0.01 0.01 0.01 0.00 0.01 0.01 0.01 0.01
0.01 0.01 0.02 0.02 0.02 0.02 0.02 0.02 0.02 0.01 0.01 0.02 0.02 0.02 0.06 0.10 0.13 0.13 0.13 0.14 0.15 0.17 0.16 0.16 0.17 0.18 0.19 0.17 0.15 0.10 0.05 0.04 0.03 0.02 0.01 0.01 0.00 0.00 0.01 0.01 0.01 0.01 0.01
0.01 0.01 0.01 0.02 0.02 0.02 0.02 0.03 0.02 0.02 0.01 0.01 0.01 0.01 0.02 0.05 0.07 0.10 0.11 0.15 0.14 0.15 0.17 0.20 0.21 0.20 0.21 0.21 0.19 0.15 0.08 0.05 0.04 0.03 0.01 0.00 0.00 0.01 0.01 0.01 0.01 0.01 0.01
0.01 0.01 0.02 0.03 0.04 0.05 0.06 0.06 0.06 0.05 0.04 0.03 0.02 0.01 0.01 0.02 0.04 0.07 0.08 0.12 0.16 0.14 0.17 0.19 0.22 0.23 0.23 0.24 0.22 0.16 0.11 0.07 0.04 0.03 0.02 0.01 0.00 0.01 0.01 0.02 0.01 0.01 0.01
0.01 0.01 0.02 0.02 0.03 0.05 0.06 0.07 0.07 0.07 0.07 0.06 0.05 0.03 0.02 0.02 0.02 0.03 0.06 0.08 0.14 0.15 0.17 0.19 0.23 0.24 0.22 0.23 0.22 0.15 0.10 0.08 0.05 0.03 0.02 0.01 0.00 0.00 0.01 0.01 0.01 0.01 0.01
0.00 0.01 0.01 0.02 0.02 0.03 0.04 0.05 0.07 0.07 0.06 0.06 0.06 0.04 0.03 0.02 0.02 0.02 0.03 0.05 0.10 0.13 0.14 0.16 0.23 0.27 0.21 0.19 0.19 0.15 0.11 0.08 0.06 0.03 0.02 0.01 0.00 0.00 0.00 0.01 0.01 0.01 0.01
0.00 0.01 0.01 0.02 0.03 0.03 0.03 0.04 0.05 0.06 0.07 0.07 0.06 0.05 0.03 0.03 0.02 0.03 0.04 0.05 0.07 0.11 0.11 0.11 0.18 0.28 0.22 0.16 0.16 0.17 0.14 0.10 0.06 0.04 0.02 0.01 0.00 0.00 0.00 0.00 0.01 0.01 0.01
0.00 0.01 0.01 0.01 0.02 0.03 0.04 0.04 0.04 0.04 0.04 0.06 0.07 0.07 0.06 0.03 0.02 0.02 0.03 0.04 0.07 0.09 0.10 0.09 0.13 0.24 0.27 0.18 0.15 0.14 0.13 0.10 0.06 0.06 0.05 0.02 0.01 0.00 0.00 0.00 0.00 0.01 0.01
0.01 0.01 0.01 0.01 0.01 0.02 0.03 0.04 0.04 0.04 0.03 0.04 0.06 0.07 0.07 0.06 0.04 0.02 0.02 0.03 0.04 0.07 0.09 0.09 0.09 0.16 0.25 0.24 0.16 0.15 0.14 0.13 0.10 0.08 0.08 0.06 0.02 0.01 0.00 0.00 0.00 0.01 0.01
0.01 0.01 0.01 0.01 0.01 0.01 0.01 0.01 0.02 0.03 0.03 0.02 0.04 0.05 0.05 0.05 0.04 0.04 0.03 0.02 0.02 0.04 0.07 0.10 0.11 0.15 0.19 0.27 0.22 0.15 0.15 0.15 0.11 0.08 0.06 0.06 0.04 0.02 0.00 0.00 0.00 0.01 0.01
0.01 0.01 0.01 0.01 0.01 0.01 0.01 0.01 0.01 0.02 0.02 0.01 0.02 0.04 0.04 0.04 0.04 0.04 0.03 0.03 0.02 0.02 0.03 0.07 0.09 0.13 0.17 0.21 0.25 0.18 0.14 0.13 0.12 0.09 0.05 0.03 0.03 0.02 0.01 0.01 0.00 0.00 0.01
MSLP
1012.50 1012.54 1012.48 1012.39 1012.31 1012.29 1012.34 1012.47 1012.67 1012.91 1013.15 1013.38 1013.57 1013.71 1013.82 1013.91 1013.99 1014.07 1014.16 1014.25 1014.36 1014.48 1014.61 1014.77 1014.97 1015.22 1015.52 1015.87 1016.27 1016.69 1017.12 1017.53 1017.93 1018.29 1018.64 1018.97 1019.30 1019.62 1019.95 1020.26 1020.56 1020.83 1021.07
1012.05 1012.07 1012.02 1011.94 1011.86 1011.83 1011.87 1011.99 1012.17 1012.40 1012.64 1012.88 1013.08 1013.25 1013.37 1013.47 1013.54 1013.60 1013.66 1013.72 1013.79 1013.89 1014.02 1014.19 1014.42 1014.69 1015.02 1015.40 1015.81 1016.23 1016.65 1017.06 1017.46 1017.84 1018.22 1018.59 1018.97 1019.34 1019.71 1020.05 1020.37 1020.65 1020.89
1011.59 1011.62 1011.58 1011.53 1011.47 1011.46 1011.50 1011.60 1011.76 1011.96 1012.18 1012.40 1012.60 1012.77 1012.90 1013.00 1013.06 1013.09 1013.12 1013.15 1013.19 1013.26 1013.39 1013.56 1013.81 1014.11 1014.46 1014.86 1015.28 1015.70 1016.13 1016.54 1016.93 1017.33 1017.73 1018.14 1018.56 1018.97 1019.38 1019.76 1020.11 1020.40 1020.65
1011.19 1011.23 1011.24 1011.22 1011.21 1011.22 1011.26 1011.35 1011.47 1011.63 1011.80 1011.98 1012.15 1012.30 1012.42 1012.50 1012.54 1012.56 1012.55 1012.55 1012.56 1012.61 1012.72 1012.89 1013.15 1013.47 1013.85 1014.26 1014.69 1015.12 1015.54 1015.95 1016.36 1016.76 1017.18 1017.62 1018.07 1018.53 1018.98 1019.39 1019.76 1020.09 1020.36
1010.89 1010.96 1011.01 1011.05 1011.09 1011.13 1011.18 1011.24 1011.32 1011.41 1011.51 1011.63 1011.75 1011.86 1011.95 1012.01 1012.03 1012.02 1011.99 1011.95 1011.93 1011.95 1012.04 1012.21 1012.46 1012.79 1013.18 1013.61 1014.05 1014.49 1014.92 1015.33 1015.74 1016.16 1016.59 1017.05 1017.53 1018.01 1018.49 1018.94 1019.34 1019.70 1020.00
1010.71 1010.80 1010.89 1010.99 1011.08 1011.15 1011.21 1011.25 1011.27 1011.30 1011.32 1011.36 1011.42 1011.47 1011.52 1011.55 1011.55 1011.51 1011.45 1011.38 1011.32 1011.32 1011.38 1011.52 1011.77 1012.09 1012.49 1012.92 1013.38 1013.82 1014.26 1014.68 1015.10 1015.53 1015.98 1016.45 1016.94 1017.45 1017.95 1018.42 1018.85 1019.23 1019.57
1010.62 1010.71 1010.84 1010.99 1011.12 1011.23 1011.30 1011.31 1011.30 1011.25 1011.21 1011.17 1011.16 1011.16 1011.16 1011.16 1011.13 1011.07 1010.98 1010.87 1010.78 1010.74 1010.76 1010.88 1011.09 1011.40 1011.79 1012.22 1012.68 1013.14 1013.59 1014.03 1014.46 1014.90 1015.36 1015.84 1016.34 1016.85 1017.36 1017.85 1018.30 1018.70 1019.06
1010.55 1010.64 1010.78 1010.97 1011.14 1011.28 1011.36 1011.37 1011.32 1011.23 1011.13 1011.04 1010.97 1010.93 1010.90 1010.86 1010.81 1010.72 1010.60 1010.47 1010.33 1010.24 1010.22 1010.29 1010.46 1010.74 1011.10 1011.53 1011.98 1012.45 1012.91 1013.37 1013.82 1014.28 1014.75 1015.23 1015.74 1016.25 1016.75 1017.24 1017.70 1018.11 1018.50
1010.44 1010.50 1010.65 1010.85 1011.05 1011.22 1011.32 1011.34 1011.29 1011.19 1011.06 1010.94 1010.84 1010.77 1010.72 1010.67 1010.60 1010.49 1010.34 1010.17 1009.99 1009.85 1009.77 1009.78 1009.90 1010.13 1010.45 1010.85 1011.30 1011.76 1012.24 1012.71 1013.18 1013.66 1014.14 1014.63 1015.14 1015.64 1016.14 1016.62 1017.07 1017.49 1017.89
1010.24 1010.26 1010.40 1010.60 1010.82 1011.01 1011.14 1011.19 1011.16 1011.08 1010.96 1010.85 1010.75 1010.69 1010.63 1010.58 1010.49 1010.37 1010.20 1009.99 1009.77 1009.56 1009.42 1009.36 1009.42 1009.58 1009.86 1010.22 1010.64 1011.10 1011.57 1012.06 1012.55 1013.04 1013.54 1014.05 1014.55 1015.05 1015.53 1016.00 1016.44 1016.86 1017.26
1009.94 1009.92 1010.02 1010.21 1010.44 1010.66 1010.82 1010.91 1010.93 1010.89 1010.82 1010.74 1010.68 1010.64 1010.60 1010.56 1010.48 1010.34 1010.15 1009.91 1009.64 1009.39 1009.18 1009.06 1009.04 1009.14 1009.35 1009.65 1010.04 1010.47 1010.94 1011.44 1011.94 1012.45 1012.97 1013.48 1013.99 1014.48 1014.96 1015.42 1015.84 1016.25 1016.64
1009.57 1009.50 1009.57 1009.74 1009.96 1010.19 1010.39 1010.53 1010.60 1010.63 1010.62 1010.61 1010.60 1010.61 1010.60 1010.58 1010.51 1010.38 1010.18 1009.91 1009.62 1009.32 1009.07 1008.88 1008.79 1008.82 1008.96 1009.21 1009.54 1009.94 1010.39 1010.87 1011.38 1011.90 1012.43 1012.96 1013.47 1013.97 1014.44 1014.88 1015.30 1015.70 1016.08
1009.20 1009.09 1009.12 1009.25 1009.46 1009.69 1009.90 1010.08 1010.22 1010.31 1010.38 1010.44 1010.50 1010.55 1010.60 1010.61 1010.56 1010.44 1010.24 1009.98 1009.68 1009.36 1009.07 1008.84 1008.70 1008.67 1008.74 1008.92 1009.20 1009.55 1009.96 1010.42 1010.92 1011.44 1011.98 1012.51 1013.03 1013.53 1014.00 1014.44 1014.85 1015.23 1015.59
1008.90 1008.75 1008.73 1008.82 1009.00 1009.21 1009.43 1009.63 1009.81 1009.96 1010.09 1010.22 1010.35 1010.46 1010.55 1010.60 1010.59 1010.50 1010.33 1010.09 1009.80 1009.49 1009.20 1008.96 1008.79 1008.71 1008.73 1008.85 1009.06 1009.35 1009.72 1010.14 1010.61 1011.12 1011.65 1012.18 1012.71 1013.21 1013.68 1014.11 1014.50 1014.87 1015.21
1008.70 1008.52 1008.46 1008.51 1008.63 1008.81 1009.01 1009.21 1009.41 1009.60 1009.78 1009.96 1010.14 1010.30 1010.44 1010.53 1010.56 1010.52 1010.39 1010.20 1009.96 1009.70 1009.44 1009.22 1009.05 1008.96 1008.94 1009.01 1009.16 1009.39 1009.70 1010.07 1010.50 1010.97 1011.48 1012.01 1012.52 1013.02 1013.48 1013.90 1014.28 1014.62 1014.94
1008.62 1008.42 1008.32 1008.32 1008.38 1008.51 1008.67 1008.84 1009.04 1009.24 1009.44 1009.66 1009.87 1010.07 1010.25 1010.39 1010.46 1010.47 1010.41 1010.29 1010.13 1009.95 1009.76 1009.59 1009.46 1009.37 1009.35 1009.38 1009.49 1009.66 1009.90 1010.21 1010.59 1011.03 1011.50 1012.00 1012.50 1012.98 1013.43 1013.83 1014.18 1014.49 1014.76
1008.62 1008.41 1008.28 1008.21 1008.22 1008.28 1008.38 1008.51 1008.68 1008.86 1009.07 1009.30 1009.53 1009.76 1009.97 1010.14 1010.27 1010.34 1010.36 1010.33 1010.27 1010.18 1010.09 1010.01 1009.94 1009.89 1009.88 1009.91 1009.98 1010.10 1010.29 1010.54 1010.87 1011.25 1011.69 1012.16 1012.63 1013.08 1013.50 1013.87 1014.18 1014.44 1014.66
1008.64 1008.42 1008.25 1008.13 1008.07 1008.06 1008.10 1008.18 1008.30 1008.46 1008.66 1008.88 1009.12 1009.37 1009.60 1009.81 1009.98 1010.12 1010.22 1010.29 1010.33 1010.35 1010.37 1010.38 1010.39 1010.40 1010.43 1010.46 1010.52 1010.61 1010.76 1010.97 1011.24 1011.58 1011.98 1012.41 1012.85 1013.27 1013.66 1013.98 1014.24 1014.44 1014.59
1008.59 1008.36 1008.16 1008.00 1007.88 1007.81 1007.78 1007.81 1007.89 1008.02 1008.20 1008.42 1008.65 1008.90 1009.15 1009.39 1009.61 1009.80 1009.97 1010.12 1010.26 1010.39 1010.51 1010.62 1010.72 1010.80 1010.87 1010.93 1010.99 1011.07 1011.20 1011.37 1011.62 1011.93 1012.29 1012.70 1013.11 1013.50 1013.85 1014.12 1014.33 1014.46 1014.54
1008.42 1008.18 1007.95 1007.75 1007.58 1007.46 1007.39 1007.37 1007.42 1007.53 1007.69 1007.90 1008.14 1008.39 1008.65 1008.91 1009.15 1009.39 1009.61 1009.83 1010.05 1010.26 1010.47 1010.66 1010.84 1010.98 1011.10 1011.19 1011.27 1011.36 1011.48 1011.65 1011.89 1012.18 1012.54 1012.93 1013.32 1013.70 1014.02 1014.26 1014.42 1014.49 1014.50
1008.11 1007.85 1007.60 1007.36 1007.16 1007.00 1006.90 1006.86 1006.89 1006.99 1007.14 1007.35 1007.59 1007.85 1008.12 1008.38 1008.65 1008.90 1009.16 1009.42 1009.69 1009.96 1010.23 1010.48 1010.71 1010.90 1011.06 1011.19 1011.30 1011.41 1011.54 1011.73 1011.97 1012.28 1012.64 1013.04 1013.44 1013.81 1014.12 1014.35 1014.48 1014.52 1014.48
1007.66 1007.38 1007.11 1006.85 1006.63 1006.45 1006.34 1006.29 1006.31 1006.41 1006.57 1006.79 1007.04 1007.30 1007.58 1007.85 1008.12 1008.39 1008.66 1008.93 1009.22 1009.52 1009.81 1010.09 1010.35 1010.57 1010.76 1010.91 1011.05 1011.19 1011.35 1011.56 1011.83 1012.17 1012.56 1012.99 1013.41 1013.81 1014.14 1014.37 1014.50 1014.53 1014.47
1007.14 1006.84 1006.55 1006.28 1006.04 1005.86 1005.74 1005.70 1005.73 1005.84 1006.02 1006.24 1006.50 1006.78 1007.06 1007.33 1007.60 1007.87 1008.14 1008.41 1008.69 1008.99 1009.28 1009.56 1009.82 1010.05 1010.25 1010.42 1010.58 1010.74 1010.94 1011.18 1011.49 1011.87 1012.30 1012.77 1013.24 1013.68 1014.05 1014.32 1014.49 1014.54 1014.50
1006.61 1006.29 1005.98 1005.70 1005.46 1005.28 1005.17 1005.13 1005.18 1005.31 1005.50 1005.74 1006.01 1006.30 1006.59 1006.87 1007.13 1007.39 1007.65 1007.91 1008.18 1008.46 1008.73 1009.00 1009.24 1009.46 1009.66 1009.83 1010.00 1010.17 1010.39 1010.66 1011.00 1011.42 1011.89 1012.41 1012.94 1013.43 1013.86 1014.20 1014.42 1014.54 1014.56
1006.15 1005.81 1005.49 1005.21 1004.97 1004.79 1004.68 1004.66 1004.71 1004.85 1005.06 1005.31 1005.60 1005.89 1006.19 1006.47 1006.74 1007.00 1007.25 1007.50 1007.75 1008.00 1008.25 1008.49 1008.72 1008.92 1009.10 1009.26 1009.42 1009.60 1009.82 1010.10 1010.46 1010.89 1011.40 1011.96 1012.53 1013.08 1013.57 1013.99 1014.30 1014.50 1014.61
1005.80 1005.46 1005.14 1004.85 1004.61 1004.43 1004.33 1004.30 1004.37 1004.51 1004.71 1004.97 1005.27 1005.57 1005.87 1006.16 1006.43 1006.69 1006.94 1007.19 1007.43 1007.67 1007.90 1008.13 1008.33 1008.51 1008.66 1008.80 1008.94 1009.11 1009.31 1009.58 1009.93 1010.37 1010.88 1011.45 1012.05 1012.64 1013.20 1013.68 1014.08 1014.39 1014.60
Thickness
5751 5749 5747 5746 5745 5744 5742 5741 5739 5737 5736 5734 5734 5733 5734 5734 5734 5735 5736 5737 5738 5738 5737 5736 5735 5735 5735 5735 5734 5733 5731 5730 5729 5728 5727 5726 5726 5725 5724 5723 5722 5722 5721
5746 5744 5742 5741 5741 5740 5739 5738 5737 5735 5734 5732 5732 5732 5733 5732 5732 5733 5734 5735 5736 5737 5737 5735 5735 5734 5734 5734 5733 5732 5731 5730 5729 5728 5727 5726 5725 5725 5724 5723 5723 5722 5721
5743 5741 5737 5735 5735 5735 5735 5734 5733 5731 5729 5728 5728 5729 5730 5730 5730 5731 5732 5732 5733 5734 5735 5734 5734 5734 5734 5733 5733 5732 5731 5730 5729 5728 5727 5726 5725 5724 5724 5723 5722 5721 5721
5738 5735 5733 5731 5731 5730 5730 5729 5727 5725 5724 5724 5724 5725 5726 5727 5728 5729 5729 5730 5730 5731 5732 5733 5733 5733 5733 5733 5733 5732 5731 5730 5729 5728 5727 5726 5725 5724 5724 5723 5722 5721 5720
5733 5731 5728 5727 5726 5726 5725 5723 5722 5720 5719 5719 5720 5721 5722 5723 5725 5727 5727 5728 5729 5729 5730 5731 5732 5733 5733 5733 5733 5732 5731 5730 5729 5728 5727 5726 5725 5724 5724 5723 5722 5721 5720
5727 5725 5723 5721 5720 5719 5718 5717 5716 5715 5715 5715 5716 5717 5718 5720 5722 5723 5725 5727 5727 5728 5728 5729 5731 5732 5732 5733 5733 5732 5731 5730 5729 5729 5727 5726 5725 5724 5724 5723 5722 5721 5720
5720 5718 5715 5714 5713 5711 5711 5711 5710 5709 5709 5709 5706 5707 5711 5715 5717 5720 5723 5724 5725 5726 5727 5728 5730 5731 5732 5732 5733 5732 5731 5730 5729 5729 5728 5726 5725 5724 5723 5723 5722 5721 5720
5712 5711 5708 5705 5704 5704 5704 5704 5703 5702 5703 5704 5701 5697 5698 5703 5711 5719 5720 5721 5723 5725 5726 5727 5728 5730 5731 5732 5733 5732 5731 5731 5730 5729 5728 5727 5726 5725 5723 5723 5721 5720 5719
5703 5702 5700 5698 5697 5697 5696 5696 5696 5696 5695 5696 5697 5694 5691 5692 5700 5709 5716 5719 5721 5722 5724 5727 5728 5730 5731 5732 5732 5732 5732 5731 5730 5729 5729 5727 5726 5725 5724 5722 5721 5720 5719
5693 5692 5691 5690 5689 5688 5687 5688 5689 5688 5688 5687 5689 5692 5693 5694 5691 5696 5705 5712 5716 5719 5721 5725 5727 5729 5730 5731 5731 5732 5732 5731 5731 5730 5729 5728 5726 5725 5724 5723 5722 5720 5719
5681 5681 5681 5680 5679 5679 5678 5679 5679 5680 5680 5681 5682 5684 5686 5688 5689 5688 5692 5700 5707 5714 5718 5722 5725 5727 5729 5730 5730 5730 5731 5731 5730 5730 5729 5728 5727 5726 5725 5724 5722 5721 5719
5669 5669 5670 5670 5669 5669 5669 5670 5670 5671 5672 5674 5675 5676 5678 5679 5682 5684 5687 5691 5696 5705 5712 5717 5721 5724 5726 5727 5728 5729 5729 5729 5729 5728 5728 5727 5726 5725 5725 5724 5722 5721 5719
5657 5658 5659 5659 5659 5660 5660 5661 5661 5661 5663 5664 5666 5668 5671 5674 5678 5681 5682 5685 5689 5696 5703 5709 5715 5719 5722 5723 5725 5726 5727 5727 5727 5726 5726 5726 5725 5725 5724 5723 5722 5721 5719
5649 5649 5649 5649 5649 5650 5650 5651 5651 5652 5654 5655 5658 5660 5663 5667 5671 5675 5677 5678 5680 5685 5692 5699 5707 5713 5717 5719 5721 5722 5723 5724 5724 5723 5723 5723 5723 5723 5723 5722 5721 5720 5719
5640 5639 5638 5637 5638 5639 5639 5640 5640 5642 5643 5645 5647 5650 5653 5658 5661 5667 5670 5674 5674 5675 5681 5690 5697 5705 5709 5712 5714 5715 5717 5718 5719 5719 5719 5720 5719 5720 5720 5721 5720 5719 5717
5630 5628 5627 5626 5626 5627 5627 5628 5629 5631 5632 5634 5637 5639 5643 5647 5651 5656 5661 5666 5670 5672 5674 5683 5690 5696 5701 5704 5706 5708 5709 5711 5712 5713 5714 5715 5715 5716 5717 5717 5717 5716 5715
5618 5617 5615 5614 5614 5614 5615 5615 5616 5618 5620 5622 5625 5628 5632 5636 5640 5645 5650 5655 5660 5664 5667 5674 5681 5687 5690 5694 5695 5698 5700 5702 5704 5706 5708 5709 5710 5711 5712 5712 5712 5712 5711
5608 5605 5604 5602 5602 5602 5602 5602 5603 5606 5608 5610 5613 5616 5620 5625 5629 5634 5639 5643 5649 5655 5659 5663 5669 5675 5680 5684 5686 5689 5691 5693 5695 5698 5700 5702 5704 5705 5706 5706 5707 5707 5707
5596 5593 5591 5589 5588 5588 5588 5589 5591 5593 5596 5599 5602 5605 5608 5612 5617 5622 5627 5632 5638 5645 5650 5654 5658 5664 5669 5674 5676 5678 5681 5683 5686 5688 5691 5693 5696 5698 5699 5700 5701 5702 5703
5584 5581 5578 5576 5575 5575 5575 5576 5577 5580 5583 5586 5589 5593 5597 5601 5605 5610 5616 5621 5627 5632 5638 5643 5648 5653 5658 5663 5666 5667 5669 5673 5677 5680 5682 5684 5687 5690 5692 5693 5695 5696 5698
5573 5570 5567 5564 5563 5562 5563 5563 5564 5567 5569 5573 5577 5580 5585 5590 5595 5600 5606 5610 5615 5619 5625 5630 5636 5642 5648 5653 5656 5660 5662 5663 5666 5670 5673 5675 5678 5681 5683 5685 5688 5690 5691
5562 5559 5556 5554 5552 5553 5553 5552 5553 5554 5557 5560 5564 5568 5573 5579 5584 5589 5596 5601 5605 5609 5613 5618 5625 5631 5638 5644 5648 5652 5653 5655 5657 5661 5664 5665 5669 5672 5675 5677 5680 5682 5684
5553 5549 5547 5544 5543 5542 5542 5542 5543 5543 5545 5548 5551 5556 5562 5569 5573 5577 5583 5589 5595 5600 5606 5610 5615 5621 5628 5636 5640 5643 5647 5650 5653 5656 5657 5657 5659 5663 5666 5669 5672 5675 5677
5545 5542 5539 5537 5535 5535 5534 5533 5533 5534 5535 5538 5541 5545 5550 5557 5562 5566 5570 5575 5581 5588 5595 5602 5608 5614 5620 5626 5632 5636 5639 5640 5643 5646 5651 5650 5651 5653 5656 5659 5663 5666 5668
5541 5537 5534 5531 5529 5528 5528 5526 5526 5525 5527 5530 5533 5537 5542 5547 5553 5557 5560 5565 5570 5576 5583 5590 5596 5603 5610 5616 5621 5625 5628 5631 5634 5638 5644 5646 5645 5645 5646 5650 5653 5656 5659
5537 5534 5531 5528 5525 5523 5522 5521 5520 5519 5520 5522 5525 5529 5535 5540 5545 5548 5551 5555 5559 5565 5572 5578 5584 5591 5598 5605 5612 5618 5623 5626 5629 5632 5637 5639 5639 5639 5638 5640 5644 5647 5650